• In Russia
  • List of Countries
  • For 7 days
  • Water Temperature
  • Satellite Maps
  • Weather Map
  • Weather Widgets
  • user-avatar
    Login

    Hourly Weather Elovka

    Today, 20 July, Friday

    Time Temperature Precipitation Wind Pressure Humidity
    00:00 +19°C° 0 mm 2 mps 707 mmHg 92%
    01:00 +18°C° 0 mm 2 mps 706 mmHg 95%
    02:00 +18°C° 0 mm 2 mps 706 mmHg 95%
    03:00 +18°C° 0 mm 2 mps 706 mmHg 95%
    04:00 +18°C° 0 mm 2 mps 706 mmHg 95%
    05:00 +19°C° 0.1 mm 2 mps 706 mmHg 89%
    06:00 +21°C° 0.1 mm 2 mps 706 mmHg 83%
    07:00 +23°C° 0.1 mm 2 mps 706 mmHg 77%
    08:00 +24°C° 0.4 mm 2 mps 706 mmHg 74%
    09:00 +25°C° 0.4 mm 2 mps 706 mmHg 71%
    10:00 +26°C° 0.4 mm 2 mps 706 mmHg 68%
    11:00 +26°C° 0.6 mm 2 mps 705 mmHg 72%
    12:00 +26°C° 0.6 mm 2 mps 705 mmHg 75%
    13:00 +25°C° 0.6 mm 2 mps 705 mmHg 78%
    14:00 +25°C° 0.7 mm 2 mps 705 mmHg 80%
    15:00 +25°C° 0.7 mm 1 mps 705 mmHg 82%
    16:00 +25°C° 0.7 mm 1 mps 705 mmHg 84%
    17:00 +24°C° 0.9 mm 1 mps 704 mmHg 86%
    18:00 +24°C° 0.9 mm 1 mps 704 mmHg 87%
    19:00 +23°C° 0.9 mm 1 mps 704 mmHg 89%
    20:00 +22°C° 0.5 mm 1 mps 704 mmHg 91%
    21:00 +21°C° 0.5 mm 1 mps 704 mmHg 93%
    22:00 +20°C° 0.5 mm 1 mps 704 mmHg 95%
    23:00 +20°C° 0.4 mm 1 mps 704 mmHg 96%

    Tomorrow, 21 July, Saturday

    Time Temperature Precipitation Wind Pressure Humidity
    00:00 +19°C° 0.4 mm 1 mps 704 mmHg 96%
    01:00 +18°C° 0.4 mm 2 mps 704 mmHg 97%
    02:00 +18°C° 0.1 mm 2 mps 704 mmHg 97%
    03:00 +17°C° 0.1 mm 2 mps 704 mmHg 97%
    04:00 +17°C° 0.1 mm 2 mps 704 mmHg 97%
    05:00 +17°C° 0 mm 3 mps 704 mmHg 94%
    06:00 +18°C° 0 mm 3 mps 705 mmHg 92%
    07:00 +18°C° 0 mm 3 mps 705 mmHg 90%
    08:00 +19°C° 0 mm 4 mps 705 mmHg 84%
    09:00 +19°C° 0 mm 4 mps 706 mmHg 79%
    10:00 +20°C° 0 mm 4 mps 706 mmHg 74%
    11:00 +20°C° 0 mm 5 mps 706 mmHg 73%
    12:00 +20°C° 0 mm 5 mps 706 mmHg 73%
    13:00 +20°C° 0 mm 6 mps 706 mmHg 72%
    14:00 +19°C° 0.1 mm 5 mps 706 mmHg 76%
    15:00 +17°C° 0.1 mm 5 mps 706 mmHg 79%
    16:00 +16°C° 0.1 mm 5 mps 706 mmHg 83%
    17:00 +17°C° 0.1 mm 4 mps 707 mmHg 86%
    18:00 +15°C° 0.1 mm 4 mps 707 mmHg 88%
    19:00 +15°C° 0.1 mm 4 mps 707 mmHg 90%
    20:00 +14°C° 0.3 mm 4 mps 708 mmHg 91%
    21:00 +14°C° 0.3 mm 4 mps 708 mmHg 92%
    22:00 +14°C° 0.3 mm 4 mps 708 mmHg 93%
    23:00 +13°C° 0.4 mm 4 mps 708 mmHg 93%

    Day after tomorrow, 22 July, Sunday

    Time Temperature Precipitation Wind Pressure Humidity
    00:00 +13°C° 0.4 mm 4 mps 709 mmHg 93%
    01:00 +13°C° 0.4 mm 4 mps 709 mmHg 94%
    02:00 +13°C° 0.2 mm 4 mps 710 mmHg 94%
    03:00 +13°C° 0.2 mm 4 mps 710 mmHg 94%
    04:00 +13°C° 0.2 mm 4 mps 711 mmHg 94%
    05:00 +13°C° 0 mm 4 mps 711 mmHg 91%
    06:00 +14°C° 0 mm 4 mps 712 mmHg 88%
    07:00 +14°C° 0 mm 4 mps 712 mmHg 85%
    08:00 +17°C° 0 mm 4 mps 712 mmHg 76%
    09:00 +18°C° 0 mm 4 mps 713 mmHg 67%
    10:00 +20°C° 0 mm 4 mps 713 mmHg 59%
    11:00 +21°C° 0 mm 4 mps 713 mmHg 54%
    12:00 +22°C° 0 mm 4 mps 713 mmHg 49%
    13:00 +25°C° 0 mm 4 mps 713 mmHg 44%
    14:00 +25°C° 0 mm 3 mps 713 mmHg 43%
    15:00 +25°C° 0 mm 3 mps 712 mmHg 42%
    16:00 +26°C° 0 mm 3 mps 712 mmHg 41%
    17:00 +24°C° 0 mm 2 mps 712 mmHg 47%
    18:00 +22°C° 0 mm 1 mps 712 mmHg 54%
    19:00 +21°C° 0 mm 1 mps 712 mmHg 61%
    20:00 +19°C° 0 mm 1 mps 712 mmHg 66%
    21:00 +16°C° 0 mm 1 mps 712 mmHg 71%
    22:00 +14°C° 0 mm 1 mps 712 mmHg 76%
    23:00 +14°C° 0 mm 1 mps 712 mmHg 76%

    23 July, Monday

    Time Temperature Precipitation Wind Pressure Humidity
    00:00 +14°C° 0 mm 1 mps 712 mmHg 76%
    01:00 +13°C° 0 mm 1 mps 712 mmHg 76%
    02:00 +13°C° 0 mm 1 mps 712 mmHg 77%
    03:00 +13°C° 0 mm 1 mps 712 mmHg 77%
    04:00 +13°C° 0 mm 1 mps 712 mmHg 77%
    05:00 +15°C° 0 mm 1 mps 712 mmHg 70%
    06:00 +19°C° 0 mm 1 mps 712 mmHg 62%
    07:00 +21°C° 0 mm 1 mps 712 mmHg 54%
    08:00 +23°C° 0 mm 1 mps 712 mmHg 49%
    09:00 +26°C° 0 mm 1 mps 712 mmHg 44%
    10:00 +28°C° 0 mm 1 mps 712 mmHg 39%
    11:00 +29°C° 0 mm 1 mps 711 mmHg 37%
    12:00 +30°C° 0 mm 2 mps 711 mmHg 34%
    13:00 +31°C° 0 mm 2 mps 711 mmHg 32%
    14:00 +31°C° 0 mm 2 mps 711 mmHg 33%
    15:00 +31°C° 0 mm 2 mps 710 mmHg 33%
    16:00 +31°C° 0 mm 2 mps 710 mmHg 34%
    17:00 +29°C° 0 mm 2 mps 710 mmHg 41%
    18:00 +27°C° 0 mm 2 mps 710 mmHg 49%
    19:00 +24°C° 0 mm 2 mps 710 mmHg 56%
    20:00 +23°C° 0 mm 2 mps 710 mmHg 62%
    21:00 +20°C° 0 mm 2 mps 710 mmHg 67%
    22:00 +18°C° 0 mm 2 mps 710 mmHg 73%
    23:00 +17°C° 0 mm 2 mps 710 mmHg 74%

    24 July, Tuesday

    Time Temperature Precipitation Wind Pressure Humidity
    00:00 +18°C° 0 mm 1 mps 710 mmHg 75%
    01:00 +16°C° 0 mm 1 mps 710 mmHg 77%
    02:00 +16°C° 0 mm 1 mps 709 mmHg 77%
    03:00 +16°C° 0 mm 1 mps 709 mmHg 77%
    04:00 +16°C° 0 mm 1 mps 709 mmHg 77%
    05:00 +19°C° 0 mm 1 mps 710 mmHg 69%
    06:00 +21°C° 0 mm 1 mps 710 mmHg 61%
    07:00 +24°C° 0 mm 1 mps 710 mmHg 54%
    08:00 +26°C° 0 mm 1 mps 710 mmHg 48%
    09:00 +28°C° 0 mm 2 mps 710 mmHg 42%
    10:00 +30°C° 0 mm 2 mps 710 mmHg 36%
    11:00 +31°C° 0 mm 2 mps 710 mmHg 34%
    12:00 +32°C° 0 mm 2 mps 709 mmHg 32%
    13:00 +34°C° 0 mm 2 mps 709 mmHg 30%
    14:00 +34°C° 0 mm 2 mps 709 mmHg 31%
    15:00 +34°C° 0 mm 2 mps 709 mmHg 31%
    16:00 +32°C° 0 mm 2 mps 708 mmHg 31%
    17:00 +30°C° 0 mm 2 mps 708 mmHg 38%
    18:00 +28°C° 0 mm 2 mps 708 mmHg 46%
    19:00 +26°C° 0 mm 2 mps 708 mmHg 53%
    20:00 +24°C° 0 mm 2 mps 708 mmHg 56%
    21:00 +22°C° 0 mm 1 mps 708 mmHg 59%
    22:00 +20°C° 0 mm 1 mps 708 mmHg 63%
    23:00 +20°C° 0 mm 1 mps 708 mmHg 62%

    25 July, Wednesday

    Time Temperature Precipitation Wind Pressure Humidity
    00:00 +20°C° 0 mm 1 mps 708 mmHg 62%
    01:00 +19°C° 0 mm 1 mps 708 mmHg 62%
    02:00 +19°C° 0 mm 1 mps 708 mmHg 63%
    03:00 +19°C° 0 mm 1 mps 708 mmHg 65%
    04:00 +18°C° 0 mm 1 mps 708 mmHg 66%
    05:00 +21°C° 0 mm 1 mps 709 mmHg 61%
    06:00 +23°C° 0 mm 1 mps 709 mmHg 56%
    07:00 +25°C° 0 mm 1 mps 709 mmHg 51%
    08:00 +28°C° 0 mm 1 mps 709 mmHg 47%
    09:00 +30°C° 0 mm 1 mps 709 mmHg 42%
    10:00 +32°C° 0 mm 1 mps 710 mmHg 38%
    11:00 +33°C° 0 mm 1 mps 709 mmHg 36%
    12:00 +34°C° 0 mm 1 mps 709 mmHg 34%
    13:00 +35°C° 0 mm 2 mps 709 mmHg 32%
    14:00 +35°C° 0.1 mm 2 mps 709 mmHg 33%
    15:00 +34°C° 0.1 mm 2 mps 709 mmHg 34%
    16:00 +34°C° 0.1 mm 2 mps 709 mmHg 34%
    17:00 +31°C° 0.1 mm 2 mps 709 mmHg 41%
    18:00 +29°C° 0.1 mm 2 mps 708 mmHg 48%
    19:00 +27°C° 0.1 mm 2 mps 708 mmHg 55%
    20:00 +25°C° 0 mm 1 mps 708 mmHg 58%
    21:00 +23°C° 0 mm 1 mps 708 mmHg 60%
    22:00 +22°C° 0 mm 1 mps 708 mmHg 62%
    23:00 +22°C° 0 mm 1 mps 708 mmHg 62%
    Show more